This is the latest recevied weather packets stored in our database for station/object N8HON. If no packets are shown the sender has not sent any weather packets the latest 10 day(s).
| Time | Temp. | Humidity | Pressure | Rain* | Wind** | Luminosity | Snow |
|---|---|---|---|---|---|---|---|
| 1778172061 | 15° C | 60% | 1009.4 hPa | 0 mm | - | 681 W/m² | - |
| 1778171758 | 15° C | 58% | 1009.7 hPa | 0 mm | - | 253 W/m² | - |
| 1778171456 | 15° C | 59% | 1009.5 hPa | 0 mm | - | 257 W/m² | - |
| 1778171156 | 15.56° C | 58% | 1009.5 hPa | 0 mm | - | 258 W/m² | - |
| 1778170853 | 15.56° C | 59% | 1009.7 hPa | 0 mm | - | 477 W/m² | - |
| 1778170549 | 15° C | 59% | 1009.5 hPa | 0 mm | - | 661 W/m² | - |
| 1778170246 | 14.44° C | 61% | 1009.7 hPa | 0 mm | - | 252 W/m² | - |
| 1778169942 | 15° C | 61% | 1009.7 hPa | 0 mm | - | 450 W/m² | - |
| 1778169639 | 14.44° C | 59% | 1009.8 hPa | 0 mm | - | 553 W/m² | - |
| 1778169334 | 14.44° C | 61% | 1009.9 hPa | 0 mm | - | 519 W/m² | - |
| 1778169032 | 13.33° C | 61% | 1010 hPa | 0 mm | - | 386 W/m² | - |
| 1778168728 | 14.44° C | 62% | 1010 hPa | 0 mm | - | 550 W/m² | - |
| 1778168425 | 13.89° C | 66% | 1010.2 hPa | 0 mm | - | 679 W/m² | - |
| 1778168122 | 13.33° C | 65% | 1010.2 hPa | 0 mm | - | 758 W/m² | - |
| 1778167818 | 13.33° C | 65% | 1010 hPa | 0 mm | - | 296 W/m² | - |
| 1778167514 | 12.78° C | 65% | 1010.2 hPa | 0 mm | - | 328 W/m² | - |
| 1778167211 | 12.22° C | 66% | 1010.4 hPa | 0 mm | - | 262 W/m² | - |
| 1778166907 | 12.78° C | 66% | 1010.2 hPa | 0 mm | - | 333 W/m² | - |
| 1778166604 | 12.78° C | 67% | 1010.4 hPa | 0 mm | - | 375 W/m² | - |
| 1778166301 | 12.78° C | 64% | 1010.1 hPa | 0 mm | - | 880 W/m² | - |
| 1778165997 | 13.33° C | 64% | 1010.4 hPa | 0 mm | - | 293 W/m² | - |
| 1778165693 | 12.78° C | 61% | 1010.6 hPa | 0 mm | - | 307 W/m² | - |
| 1778165390 | 12.78° C | 63% | 1010.6 hPa | 0 mm | - | 250 W/m² | - |
| 1778165087 | 13.89° C | 62% | 1010.6 hPa | 0 mm | - | 363 W/m² | - |
| 1778164784 | 12.78° C | 62% | 1010.9 hPa | 0 mm | - | 673 W/m² | - |
* Rain latest hour (hover to see other rain measurements)
** Current wind speed in m/s (hover to see current wind gust speed)